Regional Weather Roundup
Issued by NWS

Home | Current Version | Previous Version | Graphics & Text | Print | Product List | Glossary Off
Versions: 1 2 3 4 5 6 7 8 9 10 11 12 13 14 15 16 17 18 19 20 21 22 23 24 25 26 27 28 29 30 31 32 33 34 35 36 37 38 39 40 41 42 43 44 45 46 47 48 49 50

000
ASUS43 KFSD 232210
RWRSD

WEATHER ROUNDUP FOR SOUTH DAKOTA
NATIONAL WEATHER SERVICE SIOUX FALLS SD
500 PM CDT SAT SEP 23 2017

NOTE: "FAIR" INDICATES FEW OR NO CLOUDS BELOW 12,000 FEET WITH NO
SIGNIFICANT WEATHER AND/OR OBSTRUCTIONS TO VISIBILITY.


SDZ001>005-009-010-012>017-232300-
NORTHWEST AND NORTH CENTRAL SOUTH DAKOTA

CITY           SKY/WX    TMP DP  RH WIND       PRES   REMARKS
BUFFALO          N/A     46  44  93 NE8       30.01R
FAITH            N/A     48  48 100 NE16      30.00S
MOBRIDGE       CLOUDY    56  48  74 NE12      29.99F
$$

SDZ012>016-024>037-041>051-057-063-072>074-232300-
SOUTHWEST AND SOUTH CENTRAL SOUTH DAKOTA

CITY           SKY/WX    TMP DP  RH WIND       PRES   REMARKS
RAPID CTY ARPT LGT RAIN  46  45  93 N6        30.06R FOG
PIERRE         LGT RAIN  51  49  92 N9        29.95S FOG
CUSTER         LGT RAIN  41  39  93 E8        30.02S FOG
ELLSWORTH AFB  LGT RAIN  46  46 100 N9        30.03R FOG
PHILIP         HVY RAIN  49  49 100 NE16      29.93F FOG
PINE RIDGE     LGT RAIN  48  47  96 NE12      29.97F
SPEARFISH      LGT RAIN  43  43 100 N6        30.05S
WINNER         RAIN      53  52  96 NW10      29.98R FOG
$$

SDZ004>011-016>023-039-040-232300-
NORTHEAST SOUTH DAKOTA

CITY           SKY/WX    TMP DP  RH WIND       PRES   REMARKS
ABERDEEN       TSTM      53  52  96 E17       29.96F FOG
WATERTOWN      CLOUDY    52  52 100 NE15G23   29.93F
BROOKINGS      RAIN      64  64 100 N3        29.92F
SISSETON         N/A     55  54  96 NE13      29.97F
$$

SDZ017-020-022-023-036>040-048>070-232300-
SOUTHEAST SOUTH DAKOTA

CITY           SKY/WX    TMP DP  RH WIND       PRES   REMARKS
SIOUX FALLS    CLOUDY    69  66  90 N8        29.90R
HURON          LGT RAIN  56  56 100 N8        29.93F
CHAMBERLAIN    LGT RAIN  54  54 100 N6        29.93F
MITCHELL       CLOUDY    57  56  96 NW10      29.91F
YANKTON        CLOUDY    78  67  68 N7        29.84F
$$

ABBREVIATIONS USED IN REMARKS
   TC - TEMPERATURE IN CELSIUS
  WCI - WIND CHILL INDEX
   HX - HEAT INDEX
  VSB - VISIBILITY





USA.gov is the U.S. government's official web portal to all federal, state and local government web resources and services.